Weather Service Report


338 
FPUS83 KFGF 210331
OPUFGF
PRAIRIE TO PINES WEATHER ROUNDUP
NATIONAL WEATHER SERVICE EASTERN NORTH DAKOTA/GRAND FORKS ND
1000 PM CDT FRI OCT 20 2017

 **SATELLITE DATA USED TO AUGMENT SKY COVER AT AUTOMATED STATIONS**
 *****  WEATHER ACROSS EASTERN NORTH DAKOTA  *****
  
CITY           SKY/WX    TMP DP  RH WIND       PRES   REMARKS
GRAND FORKS    MOCLDY    70  55  59 S21G39    29.37R                  
GRAND FORKS AF FAIR      68  54  60 S20G30    29.36R                  
GRAND CITY NWS NOT AVBL                                               
BUXTON           N/A     69  55  60 SE20G35     N/A                   
DEVILS LAKE    FAIR      65  53  65 S18G24    29.30F                  
FARGO          FAIR      70  55  59 S22G40    29.42F                  
WAHPETON ARPT  NOT AVBL                                               
$$

 *****  WEATHER ACROSS CENTRAL AND WESTERN NORTH DAKOTA  *****
  
CITY           SKY/WX    TMP DP  RH WIND       PRES   REMARKS
JAMESTOWN      FAIR      65  53  65 S14       29.35S                  
BISMARCK       FAIR      68  53  58 S22       29.25S                  
MINOT          FAIR      66  48  52 SE14      29.19F                  
MINOT AFB      FAIR      51  42  71 SE9       29.18F                  
GARRISON         N/A     59  49  69 SE8       29.20F                  
WILLISTON      CLEAR     63  41  45 CALM      29.16S                  
DICKINSON      FAIR      62  36  37 SW12      29.19S                  
HETTINGER      FAIR      56  35  45 S8        29.26R                  
$$

 *****  OTHER OBSERVATIONS NORTHEAST NORTH DAKOTA  *****
  
CITY           SKY/WX    TMP DP  RH WIND       PRES   REMARKS
WALHALLA       FAIR     N/A N/A N/A SE10      29.31F                  
LANGDON        FAIR      63  54  72 S20       29.32F                  
CAVALIER       FAIR      66  55  68 S12G17    29.33S                  
GRAFTON        FAIR      68  54  60 S18G24    29.38R                  
CANDO          FAIR      57  54  88 SE13      29.29F                  
FORT TOTTEN      N/A     67  53  60 S16       29.95                   
ROLLA          FAIR      55  48  76 S8        29.28S                  
RUGBY          FAIR      63  52  67 S18       29.22F                  
 ***** THE ABOVE OBSERVATIONS ARE NON NWS ARE NOT QUALITY
        CONTROLLED AND MAY MIS-REPORT RAIN FOR SNOW...
$$

 *****  OTHER OBSERVATIONS SOUTHEAST NORTH DAKOTA *****
  
CITY           SKY/WX    TMP DP  RH WIND       PRES   REMARKS
COOPERSTOWN    FAIR      63  54  72 S14       29.38R                  
VALLEY CITY    FAIR      64  55  72 SE13      29.40R                  
OAKES          NOT AVBL                                               
GWINNER        CLEAR     68  55  64 S18G24    29.41F                  
SHEYENNE NWR     N/A     67  55  65 S14       29.95S                  
BUFFALO          N/A     68  50  52 S17G31      N/A                   
WYNDMERE       NOT AVBL                                               
 ***** THE ABOVE OBSERVATIONS ARE NON NWS ARE NOT QUALITY
       CONTROLLED AND MAY MIS-REPORT RAIN FOR SNOW...
$$

  *****  WEATHER ACROSS NORTHERN MINNESOTA  *****     
  
CITY           SKY/WX    TMP DP  RH WIND       PRES   REMARKS
FLAG ISLAND    FAIR      57  48  72 SE18      29.46R                  
WARROAD        FAIR      64  54  68 S13       29.46S                  
ROSEAU         FAIR      70  54  56 S15G21    29.44S                  
HALLOCK        FAIR      70  54  56 S21G28    29.37S                  
THF RVR FALLS  FAIR      70  53  54 S23G31    29.45S                  
HALSTAD          N/A     69  55  61 S24G36      N/A                   
FOSSTON        FAIR      66  48  52 S28G38    29.49S                  
BAUDETTE       FAIR      68  51  54 S16G30    29.50S                  
WASKISH        FAIR      70  50  49 S16G26    29.52S                  
CROOKSTON      FAIR      72  54  53 S30G41    29.42S                  
$$
  *****  WEATHER ACROSS CENTRAL AND WEST MINNESOTA  *****     
  
CITY           SKY/WX    TMP DP  RH WIND       PRES   REMARKS
BEMIDJI        FAIR      68  49  51 S20G31    29.55R                  
PARK RAPIDS    FAIR      67  50  54 S18G32    29.58R                  
WADENA         FAIR      64  52  63 S17G24    29.58S                  
DETROIT LAKES  FAIR      68  52  56 S17G26    29.53F                  
MOORHEAD       FAIR      68  54  60 SE24G31   29.45S                  
FERGUS FALLS   FAIR      66  54  63 S20G25    29.51F                  
ELBOW LAKE     FAIR      64  55  72 SE18      29.54S                  
MORRIS MN      FAIR      66  55  68 S16       29.54S                  
STAPLES        FAIR      66  48  52 S16G25    29.61S                  
WHEATON        FAIR      66  55  68 SE15      29.51S                  
$$
  *****  WEATHER ELSEWHERE ACROSS MINNESOTA  *****     
  
CITY           SKY/WX    TMP DP  RH WIND       PRES   REMARKS
DULUTH         FAIR      65  43  44 S20G26    29.73R                  
INTRNTL FALLS  FAIR      68  47  46 S8G20     29.57S                  
ELY            FAIR      64  41  42 S16G25    29.70S                  
CLOQUET        FAIR      66  37  34 S14G20    29.72S                  
BRAINERD       FAIR      65  47  52 S15       29.65S                  
HIBBING        FAIR      65  42  43 S9G22     29.68R                  
ALEXANDRIA     FAIR      66  53  63 S18G30    29.60S                  
SAINT CLOUD    FAIR      65  49  56 SE13      29.67R                  
MINNEAPOLIS    FAIR      68  50  52 S17       29.73F                  
$$

  *****  WEATHER ACROSS SOUTH DAKOTA  *****
  
CITY           SKY/WX    TMP DP  RH WIND       PRES   REMARKS
SIOUX FALLS    MOCLDY    70  59  68 S22G32    29.58S                  
BROOKINGS      CLOUDY    69  58  67 S20G33    29.55S                  
WATERTOWN      MOCLDY    67  58  72 S26G33    29.50S                  
HURON          FAIR      70  57  63 S20G26    29.44F                  
SISSETON         N/A     68  57  68 S18       29.46F                  
ABERDEEN       FAIR      68  57  68 S22G28    29.40F                  
MITCHELL       FAIR      71  58  63 S21       29.48F                  
PIERRE         FAIR      62  53  72 SE13      29.35S                  
MOBRIDGE       FAIR      65  54  67 SE15      29.29S                  
RAPID CITY     FAIR      62  38  40 SW8       29.36R                  
$$

  *****  SOME WEATHER IN NEARBY STATES *****
  
CITY           SKY/WX    TMP DP  RH WIND       PRES   REMARKS
GLASGOW MT     FAIR      56  33  42 W30G39    29.33R                  
GREAT FALLS MT FAIR      39  28  64 SW15      29.57S                  
CHEYENNE WY    FAIR      51  34  52 NW18G35   29.62R                  
SCOTTSBLUFF NE FAIR      52  41  66 N9        29.46R                  
OMAHA NE       MOCLDY    70  56  61 S25G35    29.72S                  
DES MOINES IA  FAIR      64  52  64 S18       29.84R                  
DAVENPORT IA   FAIR      67  45  45 S15G24    29.98S                  
CHICAGO IL     CLOUDY    65  48  54 S12       30.05R                  
EAU CLAIRE WI  FAIR      65  45  48 S10       29.81S                  
LA CROSSE WI   FAIR      68  45  43 S14       29.86R                  
$$

  *****  SOME NATIONAL WEATHER *****
  
CITY           SKY/WX    TMP DP  RH WIND       PRES   REMARKS
LA GUARDIA NY  FAIR      67  42  40 NW8       30.20R                  
RALEIGH NC     FAIR      57  53  86 CALM      30.26R                  
ATLANTA GA     MOCLDY    64  47  53 E3        30.22S                  
NEW ORLEANS LA FAIR      75  73  93 E9        30.07S                  
OKLAHOMA CITY  MOCLDY    72  63  73 S14G23    29.85S                  
ALBUQUERQUE NM MOCLDY    63  36  36 S12       29.81S                  
SALT LAKE CITY FAIR      45  28  51 N5        29.94R                  
LOS ANGELES CA FAIR      66  57  72 E7        29.90R                  
BOISE ID       MOCLDY    46  32  58 W5        29.95R                  
SEATTLE WA     FAIR      48  44  86 SW16G26   29.91R                  
$$

*** WEATHER ACROSS MANITOBA...SASKATCHEWAN AND ONTARIO ***
                ***ONTARIO***
  
CITY           SKY/WX    TMP DP  RH WIND       PRES   REMARKS
GERALDTON      PTCLDY    48  45  87 E6        29.81S                  
THUNDER BAY    PTCLDY    50  48  93 NE7       29.76S                  
SIOUX LOOKOUT  MOCLDY    63  46  55 SE7       29.60S                  
TORONTO        PTCLDY    55  34  44 SW6       30.16R                  
BIG TROUT LK   CLEAR     39  32  75 E13G20    29.79S                  
PICKLE LAKE    NOT AVBL                                               
DRYDEN         MOCLDY    66  48  52 S16G22    29.57S                  
KENORA         MOCLDY    66  50  55 S14G25    29.49S                  
$$      
                *** MANITOBA***
  
CITY           SKY/WX    TMP DP  RH WIND       PRES   REMARKS
BRANDON        PTCLDY    52  46  82 SE6       29.21F                  
DAUPHIN        MOCLDY    48  41  76 W7        29.18F                  
ISLAND LAKE    CLOUDY    46  37  71 E21G29    29.51S                  
PILOT MOUND      N/A     61  50  67 S18         N/A                   
THE PAS        PTCLDY    43  37  81 E10G18    29.25F                  
THOMPSON       MOCLDY    37  34  87 E13G20    29.50F                  
WINNIPEG       MOCLDY    68  54  60 S22G30    29.31F                  
LYNN LAKE      CLOUDY    36  34  93 E16G23    29.44S                  
CHURCHILL      CLOUDY    36  30  80 SE24      29.86F                  
GILLAM         CLOUDY    36  30  80 E9G21     29.68F                  
$$
                ***SASKATCHEWAN***
  
CITY           SKY/WX    TMP DP  RH WIND       PRES   REMARKS
ESTEVAN        PTCLDY    54  36  50 SE8       29.17F                  
KINDERSLEY     CLOUDY    46  37  71 NW14G24   29.31R                  
LLOYDMINSTER   LGT RAIN  41  37  87 NW15G21   29.35R                  
PRINCE ALBERT  PTCLDY    43  36  75 NE7       29.26R                  
REGINA         CLOUDY    54  32  43 E5        29.15F                  
YORKTON        CLOUDY    54  39  58 S9        29.16S  

Return to Home page


Western Regional Climate Center, wrcc@dri.edu